PIMOHWEATHER Station Historical Data
Daily Summary for January 13, 2020 Units:  Metric    English   Both
Daily Weekly Monthly Yearly
  High: Low: Average:
Temperature: 30.0 °C 25.0 °C 27.5 °C
Dew Point: 26.0 °C 22.0 °C 23.9 °C
Humidity: 87% 72% 81%
Wind Speed: 19km/h 0km/h 6.7km/h
Wind Gust: 24km/h - -
Wind- - SSE
Pressure: 1010.6 hPa 1007.5 hPa -
Precipitation: 0.00 mm    
 
 
Tabular Data for January 13, 2020
Time Temperature Dew Point Pressure Wind Wind Speed Wind Gust Humidity Rainfall Rate (Hourly) solar
00:04 27.0 °C 23.0 °C 1009.6 hPa North 10 km/h 12 km/h 83% 0.00 mm 0.00 W/m2
00:09 26.0 °C 24.0 °C 1009.3 hPa North 12 km/h 16 km/h 84% 0.00 mm 0.00 W/m2
00:14 26.0 °C 24.0 °C 1009.3 hPa North 10 km/h 12 km/h 84% 0.00 mm 0.00 W/m2
00:19 26.0 °C 24.0 °C 1009.3 hPa North 10 km/h 12 km/h 84% 0.00 mm 0.00 W/m2
00:24 26.0 °C 24.0 °C 1009.3 hPa NNE 12 km/h 12 km/h 84% 0.00 mm 0.00 W/m2
00:29 26.0 °C 24.0 °C 1009.3 hPa NNE 9 km/h 12 km/h 84% 0.00 mm 0.00 W/m2
00:34 26.0 °C 24.0 °C 1009.3 hPa NNE 15 km/h 16 km/h 84% 0.00 mm 0.00 W/m2
00:39 26.0 °C 23.0 °C 1009.3 hPa NNE 16 km/h 20 km/h 84% 0.00 mm 0.00 W/m2
00:44 26.0 °C 23.0 °C 1009.3 hPa NNE 9 km/h 12 km/h 84% 0.00 mm 0.00 W/m2
00:49 26.0 °C 23.0 °C 1009.3 hPa North 11 km/h 12 km/h 83% 0.00 mm 0.00 W/m2
00:54 26.0 °C 23.0 °C 1009.3 hPa North 13 km/h 16 km/h 83% 0.00 mm 0.00 W/m2
00:59 26.0 °C 23.0 °C 1009.3 hPa NNE 12 km/h 16 km/h 82% 0.00 mm 0.00 W/m2
01:04 26.0 °C 23.0 °C 1009.3 hPa North 9 km/h 12 km/h 82% 0.00 mm 0.00 W/m2
01:09 26.0 °C 23.0 °C 1009.1 hPa North 12 km/h 16 km/h 82% 0.00 mm 0.00 W/m2
01:14 26.0 °C 23.0 °C 1009.3 hPa NNE 14 km/h 16 km/h 82% 0.00 mm 0.00 W/m2
01:19 26.0 °C 23.0 °C 1008.9 hPa North 12 km/h 12 km/h 81% 0.00 mm 0.00 W/m2
01:24 26.0 °C 23.0 °C 1009.3 hPa North 12 km/h 16 km/h 82% 0.00 mm 0.00 W/m2
01:29 26.0 °C 23.0 °C 1009.0 hPa North 8 km/h 12 km/h 82% 0.00 mm 0.00 W/m2
01:34 26.0 °C 23.0 °C 1008.9 hPa NNE 10 km/h 12 km/h 81% 0.00 mm 0.00 W/m2
01:39 26.0 °C 23.0 °C 1009.3 hPa North 10 km/h 12 km/h 82% 0.00 mm 0.00 W/m2
01:44 26.0 °C 23.0 °C 1008.9 hPa North 12 km/h 12 km/h 82% 0.00 mm 0.00 W/m2
01:49 26.0 °C 23.0 °C 1008.9 hPa North 10 km/h 12 km/h 82% 0.00 mm 0.00 W/m2
01:54 26.0 °C 23.0 °C 1008.9 hPa NNE 10 km/h 12 km/h 82% 0.00 mm 0.00 W/m2
01:59 26.0 °C 23.0 °C 1008.9 hPa North 10 km/h 12 km/h 83% 0.00 mm 0.00 W/m2
02:04 26.0 °C 23.0 °C 1008.9 hPa North 7 km/h 12 km/h 83% 0.00 mm 0.00 W/m2
02:09 26.0 °C 23.0 °C 1008.9 hPa North 6 km/h 8 km/h 83% 0.00 mm 0.00 W/m2
02:14 26.0 °C 23.0 °C 1008.9 hPa North 10 km/h 12 km/h 84% 0.00 mm 0.00 W/m2
02:19 26.0 °C 23.0 °C 1008.8 hPa NNW 10 km/h 12 km/h 84% 0.00 mm 0.00 W/m2
02:24 26.0 °C 23.0 °C 1008.8 hPa North 8 km/h 8 km/h 84% 0.00 mm 0.00 W/m2
02:29 26.0 °C 23.0 °C 1008.9 hPa WNW 2 km/h 4 km/h 84% 0.00 mm 0.00 W/m2
02:34 26.0 °C 23.0 °C 1008.8 hPa North 10 km/h 12 km/h 84% 0.00 mm 0.00 W/m2
02:39 26.0 °C 23.0 °C 1008.9 hPa North 10 km/h 12 km/h 84% 0.00 mm 0.00 W/m2
02:44 26.0 °C 23.0 °C 1008.9 hPa NNW 5 km/h 8 km/h 84% 0.00 mm 0.00 W/m2
02:49 26.0 °C 23.0 °C 1008.6 hPa NNW 5 km/h 8 km/h 84% 0.00 mm 0.00 W/m2
02:54 26.0 °C 23.0 °C 1008.6 hPa North 10 km/h 12 km/h 85% 0.00 mm 0.00 W/m2
02:59 26.0 °C 23.0 °C 1008.6 hPa North 2 km/h 4 km/h 85% 0.00 mm 0.00 W/m2
03:04 26.0 °C 23.0 °C 1008.6 hPa NNE 8 km/h 12 km/h 84% 0.00 mm 0.00 W/m2
03:09 26.0 °C 23.0 °C 1008.6 hPa North 6 km/h 8 km/h 83% 0.00 mm 0.00 W/m2
03:14 26.0 °C 22.0 °C 1008.6 hPa NNE 8 km/h 8 km/h 83% 0.00 mm 0.00 W/m2
03:19 26.0 °C 22.0 °C 1008.6 hPa North 8 km/h 8 km/h 82% 0.00 mm 0.00 W/m2
03:24 26.0 °C 22.0 °C 1008.6 hPa North 9 km/h 12 km/h 82% 0.00 mm 0.00 W/m2
03:29 26.0 °C 22.0 °C 1008.6 hPa NNW 6 km/h 8 km/h 82% 0.00 mm 0.00 W/m2
03:34 26.0 °C 22.0 °C 1008.6 hPa North 6 km/h 8 km/h 82% 0.00 mm 0.00 W/m2
03:39 26.0 °C 22.0 °C 1008.6 hPa NNE 6 km/h 8 km/h 82% 0.00 mm 0.00 W/m2
03:44 26.0 °C 22.0 °C 1008.6 hPa North 6 km/h 8 km/h 82% 0.00 mm 0.00 W/m2
03:49 25.0 °C 22.0 °C 1008.6 hPa NNE 8 km/h 8 km/h 82% 0.00 mm 0.00 W/m2
03:54 26.0 °C 22.0 °C 1008.6 hPa North 5 km/h 8 km/h 82% 0.00 mm 0.00 W/m2
03:59 26.0 °C 22.0 °C 1008.6 hPa NNE 7 km/h 8 km/h 82% 0.00 mm 0.00 W/m2
04:04 26.0 °C 22.0 °C 1008.6 hPa NNE 6 km/h 8 km/h 82% 0.00 mm 0.00 W/m2
04:09 26.0 °C 22.0 °C 1008.6 hPa North 9 km/h 12 km/h 83% 0.00 mm 0.00 W/m2
04:14 25.0 °C 22.0 °C 1008.6 hPa North 9 km/h 12 km/h 83% 0.00 mm 0.00 W/m2
04:19 25.0 °C 22.0 °C 1008.6 hPa NE 5 km/h 8 km/h 83% 0.00 mm 0.00 W/m2
04:24 26.0 °C 22.0 °C 1008.6 hPa NNE 6 km/h 8 km/h 83% 0.00 mm 0.00 W/m2
04:29 25.0 °C 22.0 °C 1008.6 hPa NNW 8 km/h 8 km/h 83% 0.00 mm 0.00 W/m2
04:34 25.0 °C 22.0 °C 1008.6 hPa North 8 km/h 12 km/h 83% 0.00 mm 0.00 W/m2
04:39 25.0 °C 22.0 °C 1008.6 hPa NNW 6 km/h 8 km/h 83% 0.00 mm 0.00 W/m2
04:44 25.0 °C 22.0 °C 1008.6 hPa North 6 km/h 8 km/h 83% 0.00 mm 0.00 W/m2
04:49 26.0 °C 22.0 °C 1008.2 hPa North 4 km/h 8 km/h 83% 0.00 mm 0.00 W/m2
04:54 26.0 °C 22.0 °C 1008.4 hPa North 7 km/h 8 km/h 83% 0.00 mm 0.00 W/m2
04:59 26.0 °C 22.0 °C 1008.4 hPa NNE 5 km/h 8 km/h 83% 0.00 mm 0.00 W/m2
05:04 26.0 °C 22.0 °C 1008.2 hPa North 3 km/h 4 km/h 83% 0.00 mm 0.00 W/m2
05:09 26.0 °C 23.0 °C 1008.6 hPa NNE 5 km/h 8 km/h 83% 0.00 mm 0.00 W/m2
05:14 26.0 °C 23.0 °C 1008.6 hPa NNE 4 km/h 8 km/h 83% 0.00 mm 0.00 W/m2
05:19 26.0 °C 23.0 °C 1008.6 hPa NNE 5 km/h 8 km/h 83% 0.00 mm 0.00 W/m2
05:24 26.0 °C 23.0 °C 1008.6 hPa NNE 5 km/h 8 km/h 83% 0.00 mm 0.00 W/m2
05:29 26.0 °C 23.0 °C 1008.6 hPa Calm     83% 0.00 mm 0.00 W/m2
05:34 26.0 °C 23.0 °C 1008.6 hPa Calm     83% 0.00 mm 0.00 W/m2
05:39 26.0 °C 23.0 °C 1008.6 hPa East 1 km/h 4 km/h 83% 0.00 mm 0.00 W/m2
05:44 26.0 °C 23.0 °C 1008.6 hPa ENE 1 km/h 4 km/h 83% 0.00 mm 0.00 W/m2
05:49 26.0 °C 23.0 °C 1008.6 hPa ESE 2 km/h 4 km/h 84% 0.00 mm 0.00 W/m2
05:54 26.0 °C 23.0 °C 1008.6 hPa ESE 1 km/h 4 km/h 84% 0.00 mm 0.00 W/m2
05:59 26.0 °C 23.0 °C 1008.6 hPa Calm     84% 0.00 mm 0.00 W/m2
06:04 26.0 °C 23.0 °C 1008.6 hPa Calm   4 km/h 84% 0.00 mm 0.00 W/m2
06:09 26.0 °C 23.0 °C 1008.6 hPa Calm   4 km/h 84% 0.00 mm 0.00 W/m2
06:14 25.0 °C 23.0 °C 1008.6 hPa East 1 km/h 4 km/h 84% 0.00 mm 0.00 W/m2
06:19 25.0 °C 23.0 °C 1008.7 hPa East 1 km/h 4 km/h 84% 0.00 mm 0.00 W/m2
06:24 25.0 °C 22.0 °C 1008.9 hPa Calm   4 km/h 84% 0.00 mm 0.00 W/m2
06:29 25.0 °C 22.0 °C 1008.9 hPa Calm   4 km/h 84% 0.00 mm 0.15 W/m2
06:34 25.0 °C 23.0 °C 1008.9 hPa SE 1 km/h 4 km/h 84% 0.00 mm 2.77 W/m2
06:39 25.0 °C 23.0 °C 1008.9 hPa East 4 km/h 4 km/h 84% 0.00 mm 5.72 W/m2
06:44 25.0 °C 23.0 °C 1008.9 hPa Calm     84% 0.00 mm 9.40 W/m2
06:49 26.0 °C 23.0 °C 1008.9 hPa Calm     85% 0.00 mm 13.37 W/m2
06:54 26.0 °C 23.0 °C 1008.9 hPa East 2 km/h 4 km/h 85% 0.00 mm 18.27 W/m2
06:59 26.0 °C 23.0 °C 1008.9 hPa SE 1 km/h 4 km/h 85% 0.00 mm 22.39 W/m2
07:04 26.0 °C 23.0 °C 1008.9 hPa SSE 4 km/h 4 km/h 85% 0.00 mm 27.44 W/m2
07:09 26.0 °C 23.0 °C 1009.3 hPa ESE 5 km/h 8 km/h 85% 0.00 mm 33.25 W/m2
07:14 26.0 °C 23.0 °C 1009.3 hPa ESE 4 km/h 8 km/h 85% 0.00 mm 38.39 W/m2
07:19 26.0 °C 23.0 °C 1009.3 hPa ESE 6 km/h 8 km/h 85% 0.00 mm 38.56 W/m2
07:24 26.0 °C 24.0 °C 1009.3 hPa SE 11 km/h 12 km/h 86% 0.00 mm 40.84 W/m2
07:29 26.0 °C 24.0 °C 1009.3 hPa SE 9 km/h 12 km/h 87% 0.00 mm 49.11 W/m2
07:34 26.0 °C 24.0 °C 1009.3 hPa SSE 10 km/h 12 km/h 87% 0.00 mm 56.00 W/m2
07:39 26.0 °C 24.0 °C 1009.3 hPa SE 10 km/h 16 km/h 87% 0.00 mm 59.06 W/m2
07:44 27.0 °C 24.0 °C 1009.3 hPa SE 10 km/h 12 km/h 86% 0.00 mm 67.80 W/m2
07:49 26.0 °C 24.0 °C 1009.3 hPa SE 12 km/h 16 km/h 87% 0.00 mm 83.06 W/m2
07:54 27.0 °C 24.0 °C 1009.5 hPa SE 13 km/h 16 km/h 87% 0.00 mm 85.51 W/m2
07:59 27.0 °C 24.0 °C 1009.5 hPa SE 13 km/h 16 km/h 87% 0.00 mm 86.29 W/m2
08:04 27.0 °C 24.0 °C 1009.6 hPa ESE 8 km/h 12 km/h 86% 0.00 mm 84.58 W/m2
08:09 27.0 °C 24.0 °C 1009.6 hPa SE 8 km/h 12 km/h 86% 0.00 mm 108.12 W/m2
08:14 27.0 °C 25.0 °C 1009.6 hPa SE 13 km/h 16 km/h 86% 0.00 mm 116.80 W/m2
08:19 27.0 °C 25.0 °C 1009.6 hPa SE 9 km/h 12 km/h 85% 0.00 mm 126.05 W/m2
08:24 28.0 °C 25.0 °C 1009.4 hPa SE 8 km/h 8 km/h 85% 0.00 mm 127.98 W/m2
08:29 28.0 °C 25.0 °C 1009.6 hPa SSE 10 km/h 12 km/h 84% 0.00 mm 163.00 W/m2
08:34 28.0 °C 25.0 °C 1009.4 hPa SE 13 km/h 16 km/h 83% 0.00 mm 162.53 W/m2
08:39 28.0 °C 25.0 °C 1009.6 hPa SE 7 km/h 8 km/h 81% 0.00 mm 161.65 W/m2
08:44 28.0 °C 25.0 °C 1009.6 hPa SSE 9 km/h 12 km/h 80% 0.00 mm 184.82 W/m2
08:49 29.0 °C 25.0 °C 1009.6 hPa ESE 7 km/h 12 km/h 79% 0.00 mm 190.96 W/m2
08:54 29.0 °C 25.0 °C 1009.8 hPa NNE 6 km/h 8 km/h 78% 0.00 mm 209.61 W/m2
08:59 30.0 °C 25.0 °C 1009.9 hPa North 5 km/h 8 km/h 76% 0.00 mm 228.03 W/m2
09:04 29.0 °C 24.0 °C 1009.9 hPa NNE 10 km/h 12 km/h 74% 0.00 mm 225.59 W/m2
09:09 29.0 °C 24.0 °C 1009.9 hPa North 9 km/h 12 km/h 75% 0.00 mm 239.31 W/m2
09:14 29.0 °C 25.0 °C 1009.9 hPa NW 19 km/h 24 km/h 80% 0.00 mm 259.32 W/m2
09:19 29.0 °C 25.0 °C 1010.1 hPa SSW 10 km/h 16 km/h 81% 0.00 mm 192.40 W/m2
09:24 29.0 °C 25.0 °C 1010.2 hPa SW 6 km/h 16 km/h 82% 0.00 mm 117.80 W/m2
09:29 29.0 °C 26.0 °C 1010.2 hPa West 7 km/h 12 km/h 83% 0.00 mm 234.73 W/m2
09:34 29.0 °C 25.0 °C 1010.2 hPa ENE 6 km/h 12 km/h 83% 0.00 mm 251.76 W/m2
09:39 29.0 °C 25.0 °C 1010.6 hPa SSW 6 km/h 12 km/h 83% 0.00 mm 296.69 W/m2
09:44 28.0 °C 25.0 °C 1010.4 hPa WNW 13 km/h 16 km/h 82% 0.00 mm 295.07 W/m2
09:49 28.0 °C 25.0 °C 1010.4 hPa West 10 km/h 12 km/h 83% 0.00 mm 207.58 W/m2
09:54 28.0 °C 25.0 °C 1010.6 hPa West 10 km/h 16 km/h 83% 0.00 mm 217.58 W/m2
09:59 28.0 °C 25.0 °C 1010.6 hPa SW 8 km/h 8 km/h 82% 0.00 mm 180.12 W/m2
10:04 28.0 °C 25.0 °C 1010.2 hPa SW 9 km/h 12 km/h 82% 0.00 mm 173.92 W/m2
10:09 28.0 °C 25.0 °C 1010.6 hPa SSW 7 km/h 8 km/h 82% 0.00 mm 123.85 W/m2
10:14 28.0 °C 25.0 °C 1010.6 hPa SW 10 km/h 12 km/h 83% 0.00 mm 123.51 W/m2
10:19 28.0 °C 25.0 °C 1010.4 hPa West 9 km/h 12 km/h 83% 0.00 mm 138.19 W/m2
10:24 28.0 °C 25.0 °C 1010.2 hPa West 7 km/h 8 km/h 83% 0.00 mm 137.92 W/m2
10:29 28.0 °C 25.0 °C 1010.2 hPa WNW 5 km/h 12 km/h 82% 0.00 mm 134.76 W/m2
10:34 28.0 °C 25.0 °C 1010.2 hPa SSW 6 km/h 12 km/h 82% 0.00 mm 135.45 W/m2
10:39 28.0 °C 25.0 °C 1010.2 hPa SW 8 km/h 16 km/h 82% 0.00 mm 135.05 W/m2
10:44 28.0 °C 24.0 °C 1010.4 hPa WSW 8 km/h 12 km/h 82% 0.00 mm 129.23 W/m2
10:49 28.0 °C 25.0 °C 1010.4 hPa WSW 8 km/h 12 km/h 81% 0.00 mm 151.15 W/m2
10:54 28.0 °C 25.0 °C 1010.2 hPa South 8 km/h 8 km/h 80% 0.00 mm 160.72 W/m2
10:59 28.0 °C 25.0 °C 1010.2 hPa SSW 9 km/h 12 km/h 80% 0.00 mm 161.04 W/m2
11:04 29.0 °C 25.0 °C 1010.1 hPa South 8 km/h 12 km/h 80% 0.00 mm 202.31 W/m2
11:09 29.0 °C 25.0 °C 1009.9 hPa WSW 6 km/h 12 km/h 79% 0.00 mm 238.58 W/m2
11:14 29.0 °C 25.0 °C 1009.9 hPa WNW 8 km/h 12 km/h 79% 0.00 mm 236.47 W/m2
11:19 29.0 °C 25.0 °C 1009.9 hPa SSW 5 km/h 8 km/h 79% 0.00 mm 225.68 W/m2
11:24 29.0 °C 25.0 °C 1009.8 hPa WSW 13 km/h 16 km/h 78% 0.00 mm 225.93 W/m2
11:29 29.0 °C 25.0 °C 1009.6 hPa SW 6 km/h 8 km/h 77% 0.00 mm 238.75 W/m2
11:34 29.0 °C 25.0 °C 1009.3 hPa WSW 4 km/h 8 km/h 77% 0.00 mm 245.94 W/m2
11:39 29.0 °C 25.0 °C 1009.2 hPa South 10 km/h 12 km/h 77% 0.00 mm 242.19 W/m2
11:44 30.0 °C 25.0 °C 1009.2 hPa SW 10 km/h 12 km/h 76% 0.00 mm 247.29 W/m2
11:49 30.0 °C 25.0 °C 1009.2 hPa SSW 11 km/h 16 km/h 76% 0.00 mm 262.63 W/m2
11:54 30.0 °C 25.0 °C 1009.2 hPa WNW 11 km/h 16 km/h 76% 0.00 mm 268.67 W/m2
11:59 30.0 °C 25.0 °C 1009.0 hPa SW 10 km/h 16 km/h 76% 0.00 mm 261.45 W/m2
12:04 30.0 °C 25.0 °C 1008.8 hPa SSW 5 km/h 8 km/h 76% 0.00 mm 259.69 W/m2
12:09 30.0 °C 25.0 °C 1008.8 hPa South 10 km/h 12 km/h 76% 0.00 mm 270.28 W/m2
12:14 30.0 °C 25.0 °C 1008.8 hPa SSW 9 km/h 12 km/h 75% 0.00 mm 287.04 W/m2
12:19 30.0 °C 25.0 °C 1008.7 hPa SW 7 km/h 12 km/h 75% 0.00 mm 299.28 W/m2
12:24 30.0 °C 25.0 °C 1008.5 hPa SSW 7 km/h 12 km/h 75% 0.00 mm 306.25 W/m2
12:29 30.0 °C 25.0 °C 1008.5 hPa South 10 km/h 16 km/h 73% 0.00 mm 330.91 W/m2
12:34 30.0 °C 25.0 °C 1008.5 hPa West 10 km/h 24 km/h 73% 0.00 mm 328.10 W/m2
12:39 30.0 °C 25.0 °C 1008.3 hPa NW 14 km/h 16 km/h 74% 0.00 mm 305.99 W/m2
12:44 30.0 °C 25.0 °C 1008.2 hPa South 13 km/h 16 km/h 74% 0.00 mm 266.37 W/m2
12:49 30.0 °C 25.0 °C 1008.2 hPa ESE 9 km/h 12 km/h 74% 0.00 mm 230.70 W/m2
12:54 30.0 °C 25.0 °C 1008.2 hPa SW 9 km/h 16 km/h 74% 0.00 mm 211.22 W/m2
12:59 30.0 °C 25.0 °C 1008.2 hPa SW 8 km/h 16 km/h 74% 0.00 mm 221.52 W/m2
13:04 30.0 °C 25.0 °C 1008.2 hPa SSW 8 km/h 12 km/h 74% 0.00 mm 220.86 W/m2
13:09 30.0 °C 25.0 °C 1007.8 hPa SSW 5 km/h 8 km/h 73% 0.00 mm 209.06 W/m2
13:14 30.0 °C 25.0 °C 1007.8 hPa SSW 10 km/h 12 km/h 73% 0.00 mm 196.44 W/m2
13:19 30.0 °C 25.0 °C 1007.8 hPa SSE 8 km/h 12 km/h 74% 0.00 mm 191.75 W/m2
13:24 30.0 °C 25.0 °C 1007.8 hPa WSW 10 km/h 20 km/h 75% 0.00 mm 170.50 W/m2
13:29 30.0 °C 25.0 °C 1007.8 hPa SW 10 km/h 12 km/h 74% 0.00 mm 159.36 W/m2
13:34 30.0 °C 25.0 °C 1007.8 hPa West 12 km/h 16 km/h 76% 0.00 mm 144.87 W/m2
13:39 30.0 °C 25.0 °C 1007.8 hPa West 10 km/h 24 km/h 76% 0.00 mm 143.23 W/m2
13:44 29.0 °C 25.0 °C 1007.8 hPa WSW 10 km/h 16 km/h 76% 0.00 mm 121.07 W/m2
13:49 29.0 °C 25.0 °C 1007.5 hPa WNW 5 km/h 8 km/h 78% 0.00 mm 83.38 W/m2
13:54 29.0 °C 25.0 °C 1007.5 hPa WNW 12 km/h 16 km/h 78% 0.00 mm 124.83 W/m2
13:59 29.0 °C 25.0 °C 1007.8 hPa NNW 16 km/h 20 km/h 81% 0.00 mm 183.92 W/m2
14:04 29.0 °C 25.0 °C 1007.5 hPa NNW 9 km/h 12 km/h 81% 0.00 mm 200.16 W/m2
14:09 29.0 °C 25.0 °C 1007.5 hPa NNW 12 km/h 16 km/h 80% 0.00 mm 195.63 W/m2
14:14 29.0 °C 25.0 °C 1007.5 hPa NW 8 km/h 12 km/h 80% 0.00 mm 175.40 W/m2
14:19 29.0 °C 25.0 °C 1007.5 hPa WNW 5 km/h 8 km/h 78% 0.00 mm 175.99 W/m2
14:24 29.0 °C 25.0 °C 1007.5 hPa South 9 km/h 12 km/h 79% 0.00 mm 182.57 W/m2
14:29 29.0 °C 25.0 °C 1007.5 hPa South 9 km/h 12 km/h 79% 0.00 mm 203.10 W/m2
14:34 29.0 °C 25.0 °C 1007.5 hPa South 7 km/h 8 km/h 79% 0.00 mm 176.60 W/m2
14:39 29.0 °C 25.0 °C 1007.5 hPa South 6 km/h 8 km/h 77% 0.00 mm 176.55 W/m2
14:44 29.0 °C 25.0 °C 1007.5 hPa South 8 km/h 12 km/h 77% 0.00 mm 195.37 W/m2
14:49 30.0 °C 25.0 °C 1007.5 hPa South 8 km/h 8 km/h 77% 0.00 mm 159.06 W/m2
14:54 30.0 °C 25.0 °C 1007.5 hPa SSW 4 km/h 8 km/h 76% 0.00 mm 144.30 W/m2
14:59 30.0 °C 25.0 °C 1007.5 hPa SSW 4 km/h 12 km/h 74% 0.00 mm 151.42 W/m2
15:04 30.0 °C 25.0 °C 1007.5 hPa South 5 km/h 8 km/h 74% 0.00 mm 186.80 W/m2
15:09 30.0 °C 24.0 °C 1007.5 hPa South 5 km/h 8 km/h 72% 0.00 mm 149.68 W/m2
15:14 30.0 °C 25.0 °C 1007.5 hPa SE 13 km/h 16 km/h 77% 0.00 mm 110.81 W/m2
15:19 30.0 °C 25.0 °C 1007.5 hPa SE 10 km/h 16 km/h 78% 0.00 mm 137.57 W/m2
15:24 30.0 °C 25.0 °C 1007.5 hPa ESE 8 km/h 12 km/h 78% 0.00 mm 178.63 W/m2
15:29 30.0 °C 25.0 °C 1007.7 hPa SSE 4 km/h 8 km/h 76% 0.00 mm 213.25 W/m2
15:34 30.0 °C 25.0 °C 1007.7 hPa South 7 km/h 8 km/h 76% 0.00 mm 146.77 W/m2
15:39 30.0 °C 25.0 °C 1007.5 hPa South 5 km/h 8 km/h 76% 0.00 mm 188.56 W/m2
15:44 30.0 °C 25.0 °C 1007.5 hPa South 4 km/h 8 km/h 75% 0.00 mm 145.92 W/m2
15:49 30.0 °C 25.0 °C 1007.8 hPa South 3 km/h 4 km/h 75% 0.00 mm 104.04 W/m2
15:54 30.0 °C 25.0 °C 1007.8 hPa SE 9 km/h 12 km/h 76% 0.00 mm 92.31 W/m2
15:59 30.0 °C 25.0 °C 1007.8 hPa East 10 km/h 12 km/h 77% 0.00 mm 37.10 W/m2
16:04 30.0 °C 25.0 °C 1007.8 hPa SE 15 km/h 16 km/h 78% 0.00 mm 28.88 W/m2
16:09 29.0 °C 25.0 °C 1007.8 hPa SE 14 km/h 16 km/h 79% 0.00 mm 24.43 W/m2
16:14 29.0 °C 25.0 °C 1008.2 hPa ESE 10 km/h 12 km/h 79% 0.00 mm 27.58 W/m2
16:19 29.0 °C 25.0 °C 1008.2 hPa ESE 9 km/h 12 km/h 79% 0.00 mm 42.01 W/m2
16:24 29.0 °C 25.0 °C 1008.2 hPa SE 10 km/h 12 km/h 79% 0.00 mm 58.89 W/m2
16:29 29.0 °C 25.0 °C 1008.2 hPa ESE 6 km/h 8 km/h 79% 0.00 mm 64.52 W/m2
16:34 29.0 °C 25.0 °C 1008.2 hPa SSE 8 km/h 12 km/h 79% 0.00 mm 62.21 W/m2
16:39 29.0 °C 25.0 °C 1008.2 hPa SE 10 km/h 12 km/h 79% 0.00 mm 48.78 W/m2
16:44 29.0 °C 25.0 °C 1008.2 hPa SE 5 km/h 8 km/h 79% 0.00 mm 35.91 W/m2
16:49 29.0 °C 25.0 °C 1008.2 hPa SE 7 km/h 8 km/h 79% 0.00 mm 24.82 W/m2
16:54 29.0 °C 25.0 °C 1008.2 hPa SE 10 km/h 12 km/h 79% 0.00 mm 26.94 W/m2
16:59 29.0 °C 25.0 °C 1008.2 hPa ESE 6 km/h 8 km/h 79% 0.00 mm 35.64 W/m2
17:04 29.0 °C 25.0 °C 1008.2 hPa SE 8 km/h 8 km/h 79% 0.00 mm 36.61 W/m2
17:09 29.0 °C 25.0 °C 1008.2 hPa ESE 5 km/h 8 km/h 78% 0.00 mm 34.80 W/m2
17:14 29.0 °C 25.0 °C 1008.2 hPa SSE 2 km/h 8 km/h 78% 0.00 mm 38.13 W/m2
17:19 29.0 °C 25.0 °C 1008.4 hPa East 4 km/h 4 km/h 78% 0.00 mm 36.27 W/m2
17:24 29.0 °C 25.0 °C 1008.4 hPa SE 3 km/h 8 km/h 78% 0.00 mm 27.12 W/m2
17:29 29.0 °C 25.0 °C 1008.4 hPa East 5 km/h 8 km/h 78% 0.00 mm 18.07 W/m2
17:34 29.0 °C 25.0 °C 1008.5 hPa ESE 4 km/h 4 km/h 78% 0.00 mm 10.08 W/m2
17:39 29.0 °C 25.0 °C 1008.5 hPa SE 5 km/h 8 km/h 79% 0.00 mm 8.35 W/m2
17:44 29.0 °C 25.0 °C 1008.5 hPa ESE 6 km/h 8 km/h 79% 0.00 mm 4.86 W/m2
17:49 29.0 °C 25.0 °C 1008.8 hPa SE 9 km/h 12 km/h 79% 0.00 mm 0.00 W/m2
17:54 29.0 °C 25.0 °C 1008.9 hPa SE 6 km/h 8 km/h 79% 0.00 mm 0.00 W/m2
17:59 28.0 °C 24.0 °C 1009.1 hPa ESE 6 km/h 8 km/h 79% 0.00 mm 0.00 W/m2
18:04 28.0 °C 24.0 °C 1008.9 hPa ESE 4 km/h 8 km/h 80% 0.00 mm 0.00 W/m2
18:09 28.0 °C 24.0 °C 1009.1 hPa SE 5 km/h 8 km/h 80% 0.00 mm 0.00 W/m2
18:14 28.0 °C 24.0 °C 1009.1 hPa ESE 7 km/h 8 km/h 81% 0.00 mm 0.00 W/m2
18:19 28.0 °C 24.0 °C 1009.0 hPa SE 11 km/h 12 km/h 81% 0.00 mm 0.00 W/m2
18:24 28.0 °C 24.0 °C 1009.2 hPa ESE 12 km/h 16 km/h 82% 0.00 mm 0.00 W/m2
18:29 28.0 °C 24.0 °C 1009.2 hPa SE 6 km/h 12 km/h 82% 0.00 mm 0.00 W/m2
18:34 28.0 °C 24.0 °C 1009.2 hPa SE 10 km/h 12 km/h 82% 0.00 mm 0.00 W/m2
18:39 28.0 °C 24.0 °C 1009.2 hPa ESE 11 km/h 16 km/h 83% 0.00 mm 0.00 W/m2
18:44 28.0 °C 24.0 °C 1009.2 hPa SE 10 km/h 12 km/h 83% 0.00 mm 0.00 W/m2
18:49 27.0 °C 24.0 °C 1009.2 hPa SE 6 km/h 12 km/h 84% 0.00 mm 0.00 W/m2
18:54 27.0 °C 25.0 °C 1009.2 hPa ESE 9 km/h 12 km/h 84% 0.00 mm 0.00 W/m2
18:59 27.0 °C 24.0 °C 1009.2 hPa ESE 8 km/h 12 km/h 84% 0.00 mm 0.00 W/m2
19:04 27.0 °C 24.0 °C 1009.2 hPa SE 12 km/h 12 km/h 84% 0.00 mm 0.00 W/m2
19:09 27.0 °C 24.0 °C 1009.4 hPa SE 10 km/h 12 km/h 84% 0.00 mm 0.00 W/m2
19:14 27.0 °C 24.0 °C 1009.6 hPa SE 9 km/h 12 km/h 85% 0.00 mm 0.00 W/m2
19:19 27.0 °C 24.0 °C 1009.6 hPa ESE 8 km/h 12 km/h 85% 0.00 mm 0.00 W/m2
19:24 27.0 °C 24.0 °C 1009.8 hPa SE 10 km/h 12 km/h 85% 0.00 mm 0.00 W/m2
19:29 27.0 °C 24.0 °C 1009.6 hPa ESE 6 km/h 12 km/h 85% 0.00 mm 0.00 W/m2
19:34 27.0 °C 24.0 °C 1009.6 hPa SE 8 km/h 8 km/h 84% 0.00 mm 0.00 W/m2
19:39 27.0 °C 24.0 °C 1009.7 hPa SE 7 km/h 8 km/h 84% 0.00 mm 0.00 W/m2
19:44 27.0 °C 24.0 °C 1009.9 hPa ESE 3 km/h 8 km/h 84% 0.00 mm 0.00 W/m2
19:49 27.0 °C 24.0 °C 1009.9 hPa SE 6 km/h 8 km/h 84% 0.00 mm 0.00 W/m2
19:54 27.0 °C 24.0 °C 1009.9 hPa SE 5 km/h 8 km/h 84% 0.00 mm 0.00 W/m2
19:59 27.0 °C 24.0 °C 1009.9 hPa Calm     84% 0.00 mm 0.00 W/m2
20:04 27.0 °C 24.0 °C 1009.9 hPa Calm     85% 0.00 mm 0.00 W/m2
20:09 27.0 °C 24.0 °C 1009.9 hPa Calm     85% 0.00 mm 0.00 W/m2
20:14 27.0 °C 24.0 °C 1009.9 hPa Calm     85% 0.00 mm 0.00 W/m2
20:19 27.0 °C 24.0 °C 1010.3 hPa Calm     85% 0.00 mm 0.00 W/m2
20:24 27.0 °C 24.0 °C 1010.3 hPa Calm     85% 0.00 mm 0.00 W/m2
20:29 27.0 °C 24.0 °C 1010.3 hPa NW 5 km/h 8 km/h 84% 0.00 mm 0.00 W/m2
20:34 27.0 °C 24.0 °C 1010.3 hPa NW 5 km/h 8 km/h 84% 0.00 mm 0.00 W/m2
20:39 27.0 °C 24.0 °C 1010.3 hPa NNW 1 km/h 4 km/h 85% 0.00 mm 0.00 W/m2
20:44 27.0 °C 24.0 °C 1010.3 hPa WNW 2 km/h 4 km/h 85% 0.00 mm 0.00 W/m2
20:49 27.0 °C 24.0 °C 1010.3 hPa NNE 5 km/h 8 km/h 85% 0.00 mm 0.00 W/m2
20:54 27.0 °C 24.0 °C 1010.3 hPa NNE 4 km/h 8 km/h 85% 0.00 mm 0.00 W/m2
20:59 27.0 °C 24.0 °C 1010.3 hPa Calm     84% 0.00 mm 0.00 W/m2
21:04 27.0 °C 24.0 °C 1010.3 hPa Calm     85% 0.00 mm 0.00 W/m2
21:09 27.0 °C 24.0 °C 1010.3 hPa SE 3 km/h 4 km/h 85% 0.00 mm 0.00 W/m2
21:14 27.0 °C 24.0 °C 1010.5 hPa Calm   4 km/h 85% 0.00 mm 0.00 W/m2
21:19 27.0 °C 24.0 °C 1010.3 hPa Calm     84% 0.00 mm 0.00 W/m2
21:24 27.0 °C 24.0 °C 1010.3 hPa Calm     85% 0.00 mm 0.00 W/m2
21:29 26.0 °C 24.0 °C 1010.5 hPa SSE 4 km/h 4 km/h 85% 0.00 mm 0.00 W/m2
21:34 26.0 °C 24.0 °C 1010.6 hPa SSE 4 km/h 4 km/h 84% 0.00 mm 0.00 W/m2
21:39 26.0 °C 24.0 °C 1010.3 hPa SE 8 km/h 8 km/h 84% 0.00 mm 0.00 W/m2
21:44 26.0 °C 23.0 °C 1010.3 hPa SSE 7 km/h 8 km/h 83% 0.00 mm 0.00 W/m2
21:49 26.0 °C 23.0 °C 1010.5 hPa SSE 3 km/h 8 km/h 83% 0.00 mm 0.00 W/m2
21:54 27.0 °C 23.0 °C 1010.3 hPa East 3 km/h 4 km/h 83% 0.00 mm 0.00 W/m2
21:59 27.0 °C 23.0 °C 1010.3 hPa SE 4 km/h 4 km/h 82% 0.00 mm 0.00 W/m2
22:04 27.0 °C 24.0 °C 1010.6 hPa SSE 3 km/h 4 km/h 83% 0.00 mm 0.00 W/m2
22:09 26.0 °C 23.0 °C 1010.3 hPa SSE 3 km/h 4 km/h 82% 0.00 mm 0.00 W/m2
22:14 27.0 °C 23.0 °C 1010.3 hPa SE 1 km/h 4 km/h 82% 0.00 mm 0.00 W/m2
22:19 27.0 °C 23.0 °C 1010.3 hPa Calm     82% 0.00 mm 0.00 W/m2
22:24 27.0 °C 24.0 °C 1010.3 hPa Calm     83% 0.00 mm 0.00 W/m2
22:29 27.0 °C 24.0 °C 1010.3 hPa Calm   4 km/h 83% 0.00 mm 0.00 W/m2
22:34 27.0 °C 24.0 °C 1010.3 hPa Calm   4 km/h 83% 0.00 mm 0.00 W/m2
22:39 26.0 °C 23.0 °C 1010.3 hPa ESE 3 km/h 8 km/h 83% 0.00 mm 0.00 W/m2
22:44 26.0 °C 23.0 °C 1010.3 hPa SE 6 km/h 8 km/h 83% 0.00 mm 0.00 W/m2
22:49 26.0 °C 23.0 °C 1010.3 hPa SE 3 km/h 4 km/h 83% 0.00 mm 0.00 W/m2
22:54 26.0 °C 23.0 °C 1010.3 hPa SSE 6 km/h 8 km/h 83% 0.00 mm 0.00 W/m2
22:59 26.0 °C 23.0 °C 1010.3 hPa Calm     83% 0.00 mm 0.00 W/m2
23:04 26.0 °C 23.0 °C 1010.3 hPa Calm     83% 0.00 mm 0.00 W/m2
23:09 26.0 °C 23.0 °C 1010.5 hPa Calm     83% 0.00 mm 0.00 W/m2
23:14 26.0 °C 23.0 °C 1010.4 hPa SSE 5 km/h 8 km/h 83% 0.00 mm 0.00 W/m2
23:19 26.0 °C 23.0 °C 1010.3 hPa SE 5 km/h 8 km/h 83% 0.00 mm 0.00 W/m2
23:24 26.0 °C 23.0 °C 1010.3 hPa SE 1 km/h 4 km/h 83% 0.00 mm 0.00 W/m2
23:29 26.0 °C 23.0 °C 1010.3 hPa Calm     83% 0.00 mm 0.00 W/m2
23:34 26.0 °C 23.0 °C 1010.1 hPa Calm     83% 0.00 mm 0.00 W/m2
23:39 26.0 °C 23.0 °C 1010.3 hPa Calm     83% 0.00 mm 0.00 W/m2
23:44 26.0 °C 23.0 °C 1010.3 hPa SSE 2 km/h 4 km/h 83% 0.00 mm 0.00 W/m2
23:49 26.0 °C 23.0 °C 1010.3 hPa SSE 1 km/h 4 km/h 82% 0.00 mm 0.00 W/m2
23:54 26.0 °C 23.0 °C 1010.3 hPa Calm     83% 0.00 mm 0.00 W/m2
23:59 26.0 °C 23.0 °C 1010.3 hPa WNW 3 km/h 4 km/h 83% 0.00 mm 0.00 W/m2
PIMOHWEATHER Philippines
Compliments of Weather Underground - 2 mb